Location: Austin
(30.3000°N, 97.7500°W)
Time: 11:00:52
(UTC-05:00)

NOSS 3-1 (A) - Pass Details

Date: 05 September 2024
Orbit: 655 x 1555 km, 63.4° (Epoch: 28 August)

Event Time Altitude Azimuth Distance (km) Brightness Sun altitude
Rises 21:13:59 0° 329° (NNW) 4,089 7.5 -18.8°
Reaches altitude 10° 21:16:33 10° 329° (NNW) 3,236 6.9 -19.4°
Maximum altitude 21:24:39 84° 243° (WSW) 1,438 4.3 -21.0°
Enters shadow 21:31:45 20° 157° (SSE) 2,984 5.6 -22.4°
